Tracking 20719 objects as of 26-May-2020
HD Live streaming from Space Station
objects crossing your sky now

ORBCOMM FM 27

Track ORBCOMM FM 27 now!
10-day predictions
ORBCOMM FM 27 is classified as:


NORAD ID: 25481
Int'l Code: 1998-053G
Perigee: 788.2 km
Apogee: 790.1 km
Inclination: 45.0 °
Period: 100.5 minutes
Semi major axis: 7160 km
RCS: 0.6177 m2 (medium)
Launch date: September 23, 1998
Source: ORBCOMM (ORB)
Launch site: Pegasus launched from Eastern Range Air Space (ERAS)
aabbcc
Your satellite tracking list
Your tracking list is empty




NASA's NSSDC Master Catalog

Two Line Element Set (TLE):
1 25481U 98053G   20145.66831785 +.00000001 +00000-0 +51485-4 0  9999
2 25481 045.0084 344.4127 0001312 111.7089 248.3897 14.32917857132174
Source of the keplerian elements: AFSPC